Volver al catálogo

FLOCK 4H 15

ActivoCienciaSSO
NORAD 66718·PAYLOAD·🇺🇸 United States

Lanzado Nov 28, 2025 desde Vandenberg Space Force Base

Loading…

Próximos Pases (próximas 24 horas)

TLE

ActualizadoSource: CelesTrak SupGP

Época: Sep 14, 2026, 22:45 UTC

1 66718C 25276BE  26257.94797454  .00014849  00000+0  66481-3 0  2571
2 66718  97.4140 329.9827 0004575  73.3669 208.7590 15.21322837    16

Sigue FLOCK 4H 15 en tiempo real con AllMySat

Download on the App Store